"Time","Value","Approval","myLocation"
"2023-05-06 00:00",16.5391556588886,"Approved","OW117"
"2023-05-06 01:00",16.5391515108705,"Approved","OW117"
"2023-05-06 02:00",16.5391473628524,"Approved","OW117"
"2023-05-06 03:00",16.5341432148343,"Approved","OW117"
"2023-05-06 04:00",16.5371390668162,"Approved","OW117"
"2023-05-06 05:00",16.542134918798,"Approved","OW117"
"2023-05-06 06:00",16.5371307707799,"Approved","OW117"
"2023-05-06 07:00",16.5391266227618,"Approved","OW117"
"2023-05-06 08:00",16.5411224747437,"Approved","OW117"
"2023-05-06 09:00",16.5411183267256,"Approved","OW117"
"2023-05-06 10:00",16.5401141787074,"Approved","OW117"
"2023-05-06 11:00",16.5341100306893,"Approved","OW117"
"2023-05-06 12:00",16.5361058826712,"Approved","OW117"
"2023-05-06 13:00",16.5361017346531,"Approved","OW117"
"2023-05-06 14:00",16.537097586635,"Approved","OW117"
"2023-05-06 15:00",16.5360934386168,"Approved","OW117"
"2023-05-06 16:00",16.5380892905987,"Approved","OW117"
"2023-05-06 17:00",16.5420851425806,"Approved","OW117"
"2023-05-06 18:00",16.5430809945625,"Approved","OW117"
"2023-05-06 19:00",16.5480768465444,"Approved","OW117"
"2023-05-06 20:00",16.5460726985262,"Approved","OW117"
"2023-05-06 21:00",16.5480685505081,"Approved","OW117"
"2023-05-06 22:00",16.54806440249,"Approved","OW117"
"2023-05-06 23:00",16.5440602544719,"Approved","OW117"
"2023-05-07 00:00",16.5410561064538,"Approved","OW117"
"2023-05-07 01:00",16.5420519584357,"Approved","OW117"
"2023-05-07 02:00",16.5400478104175,"Approved","OW117"
"2023-05-07 03:00",16.5360436623994,"Approved","OW117"
"2023-05-07 04:00",16.5380395143813,"Approved","OW117"
"2023-05-07 05:00",16.5380353663632,"Approved","OW117"
"2023-05-07 06:00",16.5370312183451,"Approved","OW117"
"2023-05-07 07:00",16.5400270703269,"Approved","OW117"
"2023-05-07 08:00",16.5420229223088,"Approved","OW117"
"2023-05-07 09:00",16.5420187742907,"Approved","OW117"
"2023-05-07 10:00",16.5380146262726,"Approved","OW117"
"2023-05-07 11:00",16.5410104782545,"Approved","OW117"
"2023-05-07 12:00",16.5410063302363,"Approved","OW117"
"2023-05-07 13:00",16.5410021822182,"Approved","OW117"
"2023-05-07 14:00",16.5409980342001,"Approved","OW117"
"2023-05-07 15:00",16.538993886182,"Approved","OW117"
"2023-05-07 16:00",16.5449897381639,"Approved","OW117"
"2023-05-07 17:00",16.5489855901458,"Approved","OW117"
"2023-05-07 18:00",16.5519814421276,"Approved","OW117"
"2023-05-07 19:00",16.5519772941095,"Approved","OW117"
"2023-05-07 20:00",16.5559731460914,"Approved","OW117"
"2023-05-07 21:00",16.5539689980733,"Approved","OW117"
"2023-05-07 22:00",16.5569648500552,"Approved","OW117"
"2023-05-07 23:00",16.555960702037,"Approved","OW117"
"2023-05-08 00:00",16.5509565540189,"Approved","OW117"
"2023-05-08 01:00",16.5509524060008,"Approved","OW117"
"2023-05-08 02:00",16.5499482579827,"Approved","OW117"
"2023-05-08 03:00",16.5429441099646,"Approved","OW117"
"2023-05-08 04:00",16.5459399619464,"Approved","OW117"
"2023-05-08 05:00",16.5469358139283,"Approved","OW117"
"2023-05-08 06:00",16.5459316659102,"Approved","OW117"
"2023-05-08 07:00",16.5439275178921,"Approved","OW117"
"2023-05-08 08:00",16.546923369874,"Approved","OW117"
"2023-05-08 09:00",16.5469192218558,"Approved","OW117"
"2023-05-08 10:00",16.5479150738377,"Approved","OW117"
"2023-05-08 11:00",16.5429109258196,"Approved","OW117"
"2023-05-08 12:00",16.5459067778015,"Approved","OW117"
"2023-05-08 13:00",16.5469026297834,"Approved","OW117"
"2023-05-08 14:00",16.5448984817653,"Approved","OW117"
"2023-05-08 15:00",16.5478943337471,"Approved","OW117"
"2023-05-08 16:00",16.549890185729,"Approved","OW117"
"2023-05-08 17:00",16.5528860377109,"Approved","OW117"
"2023-05-08 18:00",16.5508818896928,"Approved","OW117"
"2023-05-08 19:00",16.5538777416747,"Approved","OW117"
"2023-05-08 20:00",16.5568735936565,"Approved","OW117"
"2023-05-08 21:00",16.5558694456384,"Approved","OW117"
"2023-05-08 22:00",16.5558652976203,"Approved","OW117"
"2023-05-08 23:00",16.5538611496022,"Approved","OW117"
"2023-05-09 00:00",16.5538570015841,"Approved","OW117"
"2023-05-09 01:00",16.5528528535659,"Approved","OW117"
"2023-05-09 02:00",16.5488487055478,"Approved","OW117"
"2023-05-09 03:00",16.5488445575297,"Approved","OW117"
"2023-05-09 04:00",16.5488404095116,"Approved","OW117"
"2023-05-09 05:00",16.5458362614935,"Approved","OW117"
"2023-05-09 06:00",16.5448321134753,"Approved","OW117"
"2023-05-09 07:00",16.5478279654572,"Approved","OW117"
"2023-05-09 08:00",16.5488238174391,"Approved","OW117"
"2023-05-09 09:00",16.549819669421,"Approved","OW117"
"2023-05-09 10:00",16.5478155214029,"Approved","OW117"
"2023-05-09 11:00",16.5488113733848,"Approved","OW117"
"2023-05-09 12:00",16.5508072253666,"Approved","OW117"
"2023-05-09 13:00",16.5518030773485,"Approved","OW117"
"2023-05-09 14:00",16.5527989293304,"Approved","OW117"
"2023-05-09 15:00",16.5527947813123,"Approved","OW117"
"2023-05-09 16:00",16.5537906332942,"Approved","OW117"
"2023-05-09 17:00",16.557786485276,"Approved","OW117"
"2023-05-09 18:00",16.5567823372579,"Approved","OW117"
"2023-05-09 19:00",16.5617781892398,"Approved","OW117"
"2023-05-09 20:00",16.5637740412217,"Approved","OW117"
"2023-05-09 21:00",16.5637698932036,"Approved","OW117"
"2023-05-09 22:00",16.5627657451854,"Approved","OW117"
"2023-05-09 23:00",16.5647615971673,"Approved","OW117"
"2023-05-10 00:00",16.5637574491492,"Approved","OW117"
"2023-05-10 01:00",16.5607533011311,"Approved","OW117"
"2023-05-10 02:00",16.561749153113,"Approved","OW117"
"2023-05-10 03:00",16.5567450050949,"Approved","OW117"
"2023-05-10 04:00",16.5567408570767,"Approved","OW117"
"2023-05-10 05:00",16.5587367090586,"Approved","OW117"
"2023-05-10 06:00",16.5577325610405,"Approved","OW117"
"2023-05-10 07:00",16.5557284130224,"Approved","OW117"
"2023-05-10 08:00",16.5577242650043,"Approved","OW117"
"2023-05-10 09:00",16.5587201169861,"Approved","OW117"
"2023-05-10 10:00",16.557715968968,"Approved","OW117"
"2023-05-10 11:00",16.5587118209499,"Approved","OW117"
"2023-05-10 12:00",16.5607076729318,"Approved","OW117"
"2023-05-10 13:00",16.5617035249137,"Approved","OW117"
"2023-05-10 14:00",16.5616993768955,"Approved","OW117"
"2023-05-10 15:00",16.5616952288774,"Approved","OW117"
"2023-05-10 16:00",16.5636910808593,"Approved","OW117"
"2023-05-10 17:00",16.5646869328412,"Approved","OW117"
"2023-05-10 18:00",16.5666827848231,"Approved","OW117"
"2023-05-10 19:00",16.5636786368049,"Approved","OW117"
"2023-05-10 20:00",16.5676744887868,"Approved","OW117"
"2023-05-10 21:00",16.5656703407687,"Approved","OW117"
"2023-05-10 22:00",16.5696661927506,"Approved","OW117"
"2023-05-10 23:00",16.5696620447325,"Approved","OW117"
"2023-05-11 00:00",16.5676578967144,"Approved","OW117"
"2023-05-11 01:00",16.5686537486962,"Approved","OW117"
"2023-05-11 02:00",16.5686496006781,"Approved","OW117"
"2023-05-11 03:00",16.56864545266,"Approved","OW117"
"2023-05-11 04:00",16.5686413046419,"Approved","OW117"
"2023-05-11 05:00",16.5706371566238,"Approved","OW117"
"2023-05-11 06:00",16.5676330086056,"Approved","OW117"
"2023-05-11 07:00",16.5686288605875,"Approved","OW117"
"2023-05-11 08:00",16.5706247125694,"Approved","OW117"
"2023-05-11 09:00",16.5706205645513,"Approved","OW117"
"2023-05-11 10:00",16.5726164165332,"Approved","OW117"
"2023-05-11 11:00",16.570612268515,"Approved","OW117"
"2023-05-11 12:00",16.5726081204969,"Approved","OW117"
"2023-05-11 13:00",16.5726039724788,"Approved","OW117"
"2023-05-11 14:00",16.5775998244607,"Approved","OW117"
"2023-05-11 15:00",16.5805956764426,"Approved","OW117"
"2023-05-11 16:00",16.5765915284244,"Approved","OW117"
"2023-05-11 17:00",16.5825873804063,"Approved","OW117"
"2023-05-11 18:00",16.5845832323882,"Approved","OW117"
"2023-05-11 19:00",16.5845790843701,"Approved","OW117"
"2023-05-11 20:00",16.582574936352,"Approved","OW117"
"2023-05-11 21:00",16.5865707883338,"Approved","OW117"
"2023-05-11 22:00",16.5855666403157,"Approved","OW117"
"2023-05-11 23:00",16.5845624922976,"Approved","OW117"
"2023-05-12 00:00",16.5845583442795,"Approved","OW117"
"2023-05-12 01:00",16.5845541962614,"Approved","OW117"
"2023-05-12 02:00",16.5885500482433,"Approved","OW117"
"2023-05-12 03:00",16.5855459002251,"Approved","OW117"
"2023-05-12 04:00",16.587541752207,"Approved","OW117"
"2023-05-12 05:00",16.5855376041889,"Approved","OW117"
"2023-05-12 06:00",16.5885334561708,"Approved","OW117"
"2023-05-12 07:00",16.5905293081527,"Approved","OW117"
"2023-05-12 08:00",16.5925251601345,"Approved","OW117"
"2023-05-12 09:00",16.5905210121164,"Approved","OW117"
"2023-05-12 10:00",16.5945168640983,"Approved","OW117"
"2023-05-12 11:00",16.5975127160802,"Approved","OW117"
"2023-05-12 12:00",16.5965085680621,"Approved","OW117"
"2023-05-12 13:00",16.6025044200439,"Approved","OW117"
"2023-05-12 14:00",16.6065002720258,"Approved","OW117"
"2023-05-12 15:00",16.6054961240077,"Approved","OW117"
"2023-05-12 16:00",16.6074919759896,"Approved","OW117"
"2023-05-12 17:00",16.6124878279715,"Approved","OW117"
"2023-05-12 18:00",16.6134836799534,"Approved","OW117"
"2023-05-12 19:00",16.6094795319352,"Approved","OW117"
"2023-05-12 20:00",16.6134753839171,"Approved","OW117"
"2023-05-12 21:00",16.610471235899,"Approved","OW117"
"2023-05-12 22:00",16.6144670878809,"Approved","OW117"
"2023-05-12 23:00",16.6114629398628,"Approved","OW117"
"2023-05-13 00:00",16.6144587918446,"Approved","OW117"
"2023-05-13 01:00",16.6174546438265,"Approved","OW117"
"2023-05-13 02:00",16.6154504958084,"Approved","OW117"
"2023-05-13 03:00",16.6164463477903,"Approved","OW117"
"2023-05-13 04:00",16.6204421997722,"Approved","OW117"
"2023-05-13 05:00",16.619438051754,"Approved","OW117"
"2023-05-13 06:00",16.6224339037359,"Approved","OW117"
"2023-05-13 07:00",16.6244297557178,"Approved","OW117"
"2023-05-13 08:00",16.6254256076997,"Approved","OW117"
"2023-05-13 09:00",16.6264214596816,"Approved","OW117"
"2023-05-13 10:00",16.6234173116634,"Approved","OW117"
"2023-05-13 11:00",16.6274131636453,"Approved","OW117"
"2023-05-13 12:00",16.6294090156272,"Approved","OW117"
"2023-05-13 13:00",16.6334048676091,"Approved","OW117"
"2023-05-13 14:00",16.634400719591,"Approved","OW117"
"2023-05-13 15:00",16.6353965715728,"Approved","OW117"
"2023-05-13 16:00",16.6393924235547,"Approved","OW117"
"2023-05-13 17:00",16.6353882755366,"Approved","OW117"
"2023-05-13 18:00",16.6353841275185,"Approved","OW117"
"2023-05-13 19:00",16.6383799795004,"Approved","OW117"
"2023-05-13 20:00",16.6343758314823,"Approved","OW117"
"2023-05-13 21:00",16.6303716834641,"Approved","OW117"
"2023-05-13 22:00",16.633367535446,"Approved","OW117"
"2023-05-13 23:00",16.6313633874279,"Approved","OW117"
"2023-05-14 00:00",16.6253592394098,"Approved","OW117"
"2023-05-14 01:00",16.6303550913917,"Approved","OW117"
"2023-05-14 02:00",16.6283509433735,"Approved","OW117"
"2023-05-14 03:00",16.6313467953554,"Approved","OW117"
"2023-05-14 04:00",16.6343426473373,"Approved","OW117"
"2023-05-14 05:00",16.6293384993192,"Approved","OW117"
"2023-05-14 06:00",16.6333343513011,"Approved","OW117"
"2023-05-14 07:00",16.6353302032829,"Approved","OW117"
"2023-05-14 08:00",16.6363260552648,"Approved","OW117"
"2023-05-14 09:00",16.6343219072467,"Approved","OW117"
"2023-05-14 10:00",16.6333177592286,"Approved","OW117"
"2023-05-14 11:00",16.6353136112105,"Approved","OW117"
"2023-05-14 12:00",16.6383094631923,"Approved","OW117"
"2023-05-14 13:00",16.6403053151742,"Approved","OW117"
"2023-05-14 14:00",16.6363011671561,"Approved","OW117"
"2023-05-14 15:00",16.641297019138,"Approved","OW117"
"2023-05-14 16:00",16.6422928711199,"Approved","OW117"
"2023-05-14 17:00",16.6452887231018,"Approved","OW117"
"2023-05-14 18:00",16.6392845750836,"Approved","OW117"
"2023-05-14 19:00",16.6402804270655,"Approved","OW117"
"2023-05-14 20:00",16.6352762790474,"Approved","OW117"
"2023-05-14 21:00",16.6362721310293,"Approved","OW117"
"2023-05-14 22:00",16.6302679830112,"Approved","OW117"
"2023-05-14 23:00",16.631263834993,"Approved","OW117"
"2023-05-15 00:00",16.6322596869749,"Approved","OW117"
"2023-05-15 01:00",16.6292555389568,"Approved","OW117"
"2023-05-15 02:00",16.6312513909387,"Approved","OW117"
"2023-05-15 03:00",16.6312472429206,"Approved","OW117"
"2023-05-15 04:00",16.6322430949024,"Approved","OW117"
"2023-05-15 05:00",16.6332389468843,"Approved","OW117"
"2023-05-15 06:00",16.6362347988662,"Approved","OW117"
"2023-05-15 07:00",16.6372306508481,"Approved","OW117"
"2023-05-15 08:00",16.63722650283,"Approved","OW117"
"2023-05-15 09:00",16.6332223548119,"Approved","OW117"
"2023-05-15 10:00",16.6372182067937,"Approved","OW117"
"2023-05-15 11:00",16.6392140587756,"Approved","OW117"
"2023-05-15 12:00",16.6402099107575,"Approved","OW117"
"2023-05-15 13:00",16.6432057627394,"Approved","OW117"
"2023-05-15 14:00",16.6402016147213,"Approved","OW117"
"2023-05-15 15:00",16.6451974667031,"Approved","OW117"
"2023-05-15 16:00",16.648193318685,"Approved","OW117"
"2023-05-15 17:00",16.6471891706669,"Approved","OW117"
"2023-05-15 18:00",16.6471850226488,"Approved","OW117"
"2023-05-15 19:00",16.6481808746307,"Approved","OW117"
"2023-05-15 20:00",16.6421767266125,"Approved","OW117"
"2023-05-15 21:00",16.6411725785944,"Approved","OW117"
"2023-05-15 22:00",16.6411684305763,"Approved","OW117"
"2023-05-15 23:00",16.6381642825582,"Approved","OW117"
"2023-05-16 00:00",16.6341601345401,"Approved","OW117"
"2023-05-16 01:00",16.6331559865219,"Approved","OW117"
"2023-05-16 02:00",16.6351518385038,"Approved","OW117"
"2023-05-16 03:00",16.6391476904857,"Approved","OW117"
"2023-05-16 04:00",16.6361435424676,"Approved","OW117"
"2023-05-16 05:00",16.6431393944495,"Approved","OW117"
"2023-05-16 06:00",16.6471352464314,"Approved","OW117"
"2023-05-16 07:00",16.6451310984132,"Approved","OW117"
"2023-05-16 08:00",16.6481269503951,"Approved","OW117"
"2023-05-16 09:00",16.650122802377,"Approved","OW117"
"2023-05-16 10:00",16.6481186543589,"Approved","OW117"
"2023-05-16 11:00",16.6501145063408,"Approved","OW117"
"2023-05-16 12:00",16.6531103583226,"Approved","OW117"
"2023-05-16 13:00",16.6561062103045,"Approved","OW117"
"2023-05-16 14:00",16.6581020622864,"Approved","OW117"
"2023-05-16 15:00",16.6600979142683,"Approved","OW117"
"2023-05-16 16:00",16.6640937662502,"Approved","OW117"
"2023-05-16 17:00",16.665089618232,"Approved","OW117"
"2023-05-16 18:00",16.6690854702139,"Approved","OW117"
"2023-05-16 19:00",16.6640813221958,"Approved","OW117"
"2023-05-16 20:00",16.6630771741777,"Approved","OW117"
"2023-05-16 21:00",16.6630730261596,"Approved","OW117"
"2023-05-16 22:00",16.6570688781414,"Approved","OW117"
"2023-05-16 23:00",16.6540647301233,"Approved","OW117"
"2023-05-17 00:00",16.6530605821052,"Approved","OW117"
"2023-05-17 01:00",16.6480564340871,"Approved","OW117"
"2023-05-17 02:00",16.652052286069,"Approved","OW117"
"2023-05-17 03:00",16.6520481380509,"Approved","OW117"
"2023-05-17 04:00",16.6530439900327,"Approved","OW117"
"2023-05-17 05:00",16.6580398420146,"Approved","OW117"
"2023-05-17 06:00",16.6590356939965,"Approved","OW117"
"2023-05-17 07:00",16.6590315459784,"Approved","OW117"
"2023-05-17 08:00",16.6620273979603,"Approved","OW117"
"2023-05-17 09:00",16.6630232499421,"Approved","OW117"
"2023-05-17 10:00",16.660019101924,"Approved","OW117"
"2023-05-17 11:00",16.6630149539059,"Approved","OW117"
"2023-05-17 12:00",16.6650108058878,"Approved","OW117"
"2023-05-17 13:00",16.6670066578697,"Approved","OW117"
"2023-05-17 14:00",16.6670025098515,"Approved","OW117"
"2023-05-17 15:00",16.6699983618334,"Approved","OW117"
"2023-05-17 16:00",16.6739942138153,"Approved","OW117"
"2023-05-17 17:00",16.6749900657972,"Approved","OW117"
"2023-05-17 18:00",16.6769859177791,"Approved","OW117"
"2023-05-17 19:00",16.677981769761,"Approved","OW117"
"2023-05-17 20:00",16.6779776217428,"Approved","OW117"
"2023-05-17 21:00",16.6709734737247,"Approved","OW117"
"2023-05-17 22:00",16.6689693257066,"Approved","OW117"
"2023-05-17 23:00",16.6669651776885,"Approved","OW117"
"2023-05-18 00:00",16.6599610296704,"Approved","OW117"
"2023-05-18 01:00",16.6589568816522,"Approved","OW117"
"2023-05-18 02:00",16.6599527336341,"Approved","OW117"
"2023-05-18 03:00",16.659948585616,"Approved","OW117"
"2023-05-18 04:00",16.6569444375979,"Approved","OW117"
"2023-05-18 05:00",16.6629402895798,"Approved","OW117"
"2023-05-18 06:00",16.6659361415616,"Approved","OW117"
"2023-05-18 07:00",16.6679319935435,"Approved","OW117"
"2023-05-18 08:00",16.6659278455254,"Approved","OW117"
"2023-05-18 09:00",16.6709236975073,"Approved","OW117"
"2023-05-18 10:00",16.6709195494892,"Approved","OW117"
"2023-05-18 11:00",16.671915401471,"Approved","OW117"
"2023-05-18 12:00",16.6699112534529,"Approved","OW117"
"2023-05-18 13:00",16.6729071054348,"Approved","OW117"
"2023-05-18 14:00",16.6779029574167,"Approved","OW117"
"2023-05-18 15:00",16.6788988093986,"Approved","OW117"
"2023-05-18 16:00",16.6838946613804,"Approved","OW117"
"2023-05-18 17:00",16.6868905133623,"Approved","OW117"
"2023-05-18 18:00",16.6908863653442,"Approved","OW117"
"2023-05-18 19:00",16.6898822173261,"Approved","OW117"
"2023-05-18 20:00",16.687878069308,"Approved","OW117"
"2023-05-18 21:00",16.6858739212899,"Approved","OW117"
"2023-05-18 22:00",16.6848697732717,"Approved","OW117"
"2023-05-18 23:00",16.6808656252536,"Approved","OW117"
"2023-05-19 00:00",16.6768614772355,"Approved","OW117"
"2023-05-19 01:00",16.6778573292174,"Approved","OW117"
"2023-05-19 02:00",16.6808531811993,"Approved","OW117"
"2023-05-19 03:00",16.6798490331811,"Approved","OW117"
"2023-05-19 04:00",16.684844885163,"Approved","OW117"
"2023-05-19 05:00",16.6858407371449,"Approved","OW117"
"2023-05-19 06:00",16.6888365891268,"Approved","OW117"
"2023-05-19 07:00",16.6918324411087,"Approved","OW117"
"2023-05-19 08:00",16.6938282930905,"Approved","OW117"
"2023-05-19 09:00",16.6948241450724,"Approved","OW117"
"2023-05-19 10:00",16.6958199970543,"Approved","OW117"
"2023-05-19 11:00",16.6918158490362,"Approved","OW117"
"2023-05-19 12:00",16.6948117010181,"Approved","OW117"
"2023-05-19 13:00",16.6968075529999,"Approved","OW117"
"2023-05-19 14:00",16.6998034049818,"Approved","OW117"
"2023-05-19 15:00",16.6987992569637,"Approved","OW117"
"2023-05-19 16:00",16.7037951089456,"Approved","OW117"
"2023-05-19 17:00",16.7077909609275,"Approved","OW117"
"2023-05-19 18:00",16.7097868129094,"Approved","OW117"
"2023-05-19 19:00",16.7067826648912,"Approved","OW117"
"2023-05-19 20:00",16.7097785168731,"Approved","OW117"
"2023-05-19 21:00",16.705774368855,"Approved","OW117"
"2023-05-19 22:00",16.7067702208369,"Approved","OW117"
"2023-05-19 23:00",16.7027660728188,"Approved","OW117"
"2023-05-20 00:00",16.6947619248006,"Approved","OW117"
"2023-05-20 01:00",16.6947577767825,"Approved","OW117"
"2023-05-20 02:00",16.6907536287644,"Approved","OW117"
"2023-05-20 03:00",16.6907494807463,"Approved","OW117"
"2023-05-20 04:00",16.6917453327282,"Approved","OW117"
"2023-05-20 05:00",16.69674118471,"Approved","OW117"
"2023-05-20 06:00",16.6957370366919,"Approved","OW117"
"2023-05-20 07:00",16.7007328886738,"Approved","OW117"
"2023-05-20 08:00",16.7037287406557,"Approved","OW117"
"2023-05-20 09:00",16.7027245926376,"Approved","OW117"
"2023-05-20 10:00",16.7047204446194,"Approved","OW117"
"2023-05-20 11:00",16.7057162966013,"Approved","OW117"
"2023-05-20 12:00",16.7067121485832,"Approved","OW117"
"2023-05-20 13:00",16.7077080005651,"Approved","OW117"
"2023-05-20 14:00",16.705703852547,"Approved","OW117"
"2023-05-20 15:00",16.7106997045289,"Approved","OW117"
"2023-05-20 16:00",16.7146955565107,"Approved","OW117"
"2023-05-20 17:00",16.7136914084926,"Approved","OW117"
"2023-05-20 18:00",16.7166872604745,"Approved","OW117"
"2023-05-20 19:00",16.7206831124564,"Approved","OW117"
"2023-05-20 20:00",16.7216789644383,"Approved","OW117"
"2023-05-20 21:00",16.7186748164201,"Approved","OW117"
"2023-05-20 22:00",16.712670668402,"Approved","OW117"
"2023-05-20 23:00",16.7126665203839,"Approved","OW117"
"2023-05-21 00:00",16.7086623723658,"Approved","OW117"
"2023-05-21 01:00",16.7086582243477,"Approved","OW117"
"2023-05-21 02:00",16.7026540763295,"Approved","OW117"
"2023-05-21 03:00",16.7056499283114,"Approved","OW117"
"2023-05-21 04:00",16.7056457802933,"Approved","OW117"
"2023-05-21 05:00",16.7036416322752,"Approved","OW117"
"2023-05-21 06:00",16.7086374842571,"Approved","OW117"
"2023-05-21 07:00",16.706633336239,"Approved","OW117"
"2023-05-21 08:00",16.7096291882208,"Approved","OW117"
"2023-05-21 09:00",16.7116250402027,"Approved","OW117"
"2023-05-21 10:00",16.7126208921846,"Approved","OW117"
"2023-05-21 11:00",16.7126167441665,"Approved","OW117"
"2023-05-21 12:00",16.7096125961484,"Approved","OW117"
"2023-05-21 13:00",16.7106084481302,"Approved","OW117"
"2023-05-21 14:00",16.7146043001121,"Approved","OW117"
"2023-05-21 15:00",16.719600152094,"Approved","OW117"
"2023-05-21 16:00",16.7215960040759,"Approved","OW117"
"2023-05-21 17:00",16.7205918560578,"Approved","OW117"
"2023-05-21 18:00",16.7235877080396,"Approved","OW117"
"2023-05-21 19:00",16.7285835600215,"Approved","OW117"
"2023-05-21 20:00",16.7255794120034,"Approved","OW117"
"2023-05-21 21:00",16.7265752639853,"Approved","OW117"
"2023-05-21 22:00",16.7275711159672,"Approved","OW117"
"2023-05-21 23:00",16.725566967949,"Approved","OW117"
"2023-05-22 00:00",16.7195628199309,"Approved","OW117"
"2023-05-22 01:00",16.7205586719128,"Approved","OW117"
"2023-05-22 02:00",16.7155545238947,"Approved","OW117"
"2023-05-22 03:00",16.7165503758766,"Approved","OW117"
"2023-05-22 04:00",16.7165462278585,"Approved","OW117"
"2023-05-22 05:00",16.7165420798403,"Approved","OW117"
"2023-05-22 06:00",16.7135379318222,"Approved","OW117"
"2023-05-22 07:00",16.7155337838041,"Approved","OW117"
"2023-05-22 08:00",16.717529635786,"Approved","OW117"
"2023-05-22 09:00",16.7185254877679,"Approved","OW117"
"2023-05-22 10:00",16.7195213397497,"Approved","OW117"
"2023-05-22 11:00",16.7195171917316,"Approved","OW117"
"2023-05-22 12:00",16.7165130437135,"Approved","OW117"
"2023-05-22 13:00",16.7175088956954,"Approved","OW117"
"2023-05-22 14:00",16.7205047476773,"Approved","OW117"
"2023-05-22 15:00",16.7205005996591,"Approved","OW117"
"2023-05-22 16:00",16.720496451641,"Approved","OW117"
"2023-05-22 17:00",16.7254923036229,"Approved","OW117"
"2023-05-22 18:00",16.7264881556048,"Approved","OW117"
"2023-05-22 19:00",16.7294840075867,"Approved","OW117"
"2023-05-22 20:00",16.7334798595685,"Approved","OW117"
"2023-05-22 21:00",16.7354757115504,"Approved","OW117"
"2023-05-22 22:00",16.7344715635323,"Approved","OW117"
"2023-05-22 23:00",16.7344674155142,"Approved","OW117"
"2023-05-23 00:00",16.7364632674961,"Approved","OW117"
"2023-05-23 01:00",16.735459119478,"Approved","OW117"
"2023-05-23 02:00",16.7324549714598,"Approved","OW117"
"2023-05-23 03:00",16.7294508234417,"Approved","OW117"
"2023-05-23 04:00",16.7314466754236,"Approved","OW117"
"2023-05-23 05:00",16.7314425274055,"Approved","OW117"
"2023-05-23 06:00",16.7324383793874,"Approved","OW117"
"2023-05-23 07:00",16.7304342313692,"Approved","OW117"
"2023-05-23 08:00",16.7314300833511,"Approved","OW117"
"2023-05-23 09:00",16.733425935333,"Approved","OW117"
"2023-05-23 10:00",16.7334217873149,"Approved","OW117"
"2023-05-23 11:00",16.7334176392968,"Approved","OW117"
"2023-05-23 12:00",16.7344134912786,"Approved","OW117"
"2023-05-23 13:00",16.7354093432605,"Approved","OW117"
"2023-05-23 14:00",16.7364051952424,"Approved","OW117"
"2023-05-23 15:00",16.7374010472243,"Approved","OW117"
"2023-05-23 16:00",16.7363968992062,"Approved","OW117"
"2023-05-23 17:00",16.742392751188,"Approved","OW117"
"2023-05-23 18:00",16.7453886031699,"Approved","OW117"
"2023-05-23 19:00",16.7483844551518,"Approved","OW117"